Location: Fort Wayne
(41.1310°N, 85.1290°W)
Time: 04:53:05
(UTC-05:00)

Tiros 1 despin weight - Visible Passes

Search period start: 11 December 2016 00:00
Search period end: 21 December 2016 00:00
Orbit: 595 x 644 km, 48.2° (Epoch: 11 December)

Date Brightness Start Highest point End Pass type
(mag) Time Alt. Az. Time Alt. Az. Time Alt. Az.
11 Dec ? 18:12:56 10° SSE 18:15:20 14° SE 18:17:13 11° ESE visible
11 Dec ? 19:51:52 10° SW 19:54:20 33° SW 19:54:20 33° SW visible
12 Dec ? 18:28:19 10° SSW 18:32:07 28° SE 18:33:54 21° E visible
12 Dec ? 20:09:00 10° WSW 20:11:01 26° WSW 20:11:01 26° WSW visible
13 Dec ? 18:44:43 10° SW 18:49:02 53° SE 18:50:31 36° E visible
13 Dec ? 20:26:24 10° W 20:27:37 18° W 20:27:37 18° W visible
14 Dec ? 19:01:39 10° WSW 19:06:07 87° NNW 19:07:04 55° ENE visible
14 Dec ? 20:43:56 10° WNW 20:44:10 11° WNW 20:44:10 11° WNW visible
15 Dec ? 17:37:45 10° SSW 17:41:50 37° SE 17:45:58 10° ENE visible
15 Dec ? 19:18:56 10° W 19:23:19 56° NNW 19:23:34 55° N visible
16 Dec ? 17:54:25 10° SW 17:58:49 70° SSE 18:02:56 12° ENE visible
16 Dec ? 19:36:25 10° W 19:40:02 38° NW 19:40:02 38° NW visible
17 Dec ? 18:11:32 10° WSW 18:15:57 70° NNW 18:19:22 17° ENE visible
17 Dec ? 19:53:57 10° WNW 19:56:28 26° NW 19:56:28 26° NW visible
18 Dec ? 18:28:54 10° W 18:33:12 47° NNW 18:35:47 22° NE visible
18 Dec ? 20:11:24 10° WNW 20:12:52 18° NW 20:12:52 18° NW visible
19 Dec ? 18:46:26 10° WNW 18:50:33 36° N 18:52:11 27° NNE visible
19 Dec ? 20:28:43 10° WNW 20:29:16 13° NW 20:29:16 13° NW visible
20 Dec ? 19:03:56 10° WNW 19:07:59 33° N 19:08:35 31° NNE visible
